START_TIME,STEP,MOV.,M29,t_acc.,H22,t_acc.,H26,t_acc.,H30,t_acc.
1979-07-03 06:00:32.740 ,1,1,0.,24.0,0.,24.0,0.,24.0,0.,24.0
1979-07-03 06:00:56.740 ,2,1,0.,24.0,0.,24.0,0.,24.0,0.,24.0
1979-07-03 06:01:20.740 ,6,1,0.,24.0,0.,24.0,0.,24.0,0.,24.0
1979-07-03 06:01:44.740 ,5,1,1.,24.0,0.,24.0,0.,24.0,0.,24.0
1979-07-03 06:02:08.740 ,1,1,0.,24.0,0.,24.0,0.,24.0,0.,24.0
1979-07-03 06:02:32.740 ,2,1,0.,24.0,0.,24.0,0.,24.0,0.,24.0
1979-07-03 06:02:56.740 ,6,1,0.,24.0,0.,24.0,0.,24.0,0.,24.0
1979-07-03 06:03:20.740 ,5,1,0.,24.0,0.,24.0,0.,24.0,0.,24.0
1979-07-03 06:03:44.740 ,1,1,0.,24.0,0.,24.0,0.,24.0,0.,24.0
1979-07-03 06:04:08.740 ,2,1,0.,24.0,0.,24.0,0.,24.0,0.,24.0
1979-07-03 06:04:32.740 ,6,1,0.,24.0,0.,24.0,0.,24.0,0.,24.0
1979-07-03 06:04:56.740 ,5,1,0.,24.0,0.,24.0,0.,24.0,0.,24.0
1979-07-03 06:05:20.740 ,1,1,0.,24.0,0.,24.0,0.,24.0,0.,24.0
1979-07-03 06:05:44.740 ,0,0,0.,24.0,0.,24.0,0.,24.0,0.,24.0
1979-07-03 06:06:08.740 ,0,0,0.,24.0,0.,24.0,0.,24.0,0.,24.0
1979-07-03 06:06:32.740 ,5,1,0.,24.0,0.,24.0,0.,24.0,0.,24.0
1979-07-03 06:06:56.740 ,5,0,0.,24.0,0.,24.0,0.,24.0,0.,24.0
1979-07-03 06:07:20.740 ,4,1,0.,24.0,0.,24.0,0.,24.0,0.,24.0
1979-07-03 06:07:44.740 ,4,0,0.,24.0,0.,24.0,0.,24.0,0.,24.0
1979-07-03 06:08:08.740 ,3,1,0.,24.0,0.,24.0,0.,24.0,0.,24.0
1979-07-03 06:08:32.740 ,3,0,0.,24.0,0.,24.0,0.,24.0,0.,24.0
1979-07-03 06:08:56.740 ,2,1,0.,24.0,0.,24.0,0.,24.0,0.,24.0
1979-07-03 06:09:20.740 ,2,0,0.,24.0,0.,24.0,0.,24.0,0.,24.0
1979-07-03 06:09:44.740 ,1,1,0.,24.0,0.,24.0,0.,24.0,0.,24.0
1979-07-03 06:10:08.740 ,1,0,0.,24.0,0.,24.0,0.,24.0,0.,24.0
1979-07-03 06:10:32.740 ,0,1,0.,24.0,0.,24.0,0.,24.0,0.,24.0
1979-07-03 06:10:56.740 ,0,0,0.,24.0,0.,24.0,0.,24.0,0.,24.0
1979-07-03 06:11:20.740 ,0,1,0.,24.0,0.,24.0,0.,24.0,0.,24.0
1979-07-03 06:11:44.740 ,0,0,0.,24.0,0.,24.0,0.,24.0,0.,24.0
1979-07-03 06:12:08.740 ,1,1,0.,24.0,0.,24.0,0.,24.0,0.,24.0
1979-07-03 06:12:32.740 ,1,0,0.,24.0,0.,24.0,0.,24.0,0.,24.0
1979-07-03 06:12:56.740 ,2,1,0.,24.0,0.,24.0,0.,24.0,0.,24.0
1979-07-03 06:13:20.740 ,2,0,0.,24.0,0.,24.0,0.,24.0,0.,24.0
1979-07-03 06:13:44.740 ,3,1,0.,24.0,0.,24.0,0.,24.0,0.,24.0
1979-07-03 06:14:08.740 ,3,0,0.,24.0,0.,24.0,0.,24.0,0.,24.0
1979-07-03 06:14:32.740 ,4,1,0.,24.0,0.,24.0,0.,24.0,0.,24.0
1979-07-03 06:14:56.740 ,4,0,0.,24.0,0.,24.0,0.,24.0,0.,24.0
1979-07-03 06:15:20.740 ,5,1,0.,24.0,0.,24.0,0.,24.0,0.,24.0
1979-07-03 06:15:44.740 ,5,0,0.,24.0,0.,24.0,0.,24.0,0.,24.0
1979-07-03 06:16:08.740 ,6,1,0.,24.0,0.,24.0,0.,24.0,0.,24.0
1979-07-03 06:16:32.740 ,6,0,0.,24.0,0.,24.0,0.,24.0,0.,24.0
1979-07-03 06:16:56.740 ,7,1,0.,24.0,0.,24.0,0.,24.0,0.,24.0
1979-07-03 06:17:20.740 ,7,0,0.,24.0,0.,24.0,0.,24.0,0.,24.0
1979-07-03 06:17:44.740 ,7,1,0.,24.0,0.,24.0,0.,24.0,0.,24.0
1979-07-03 06:18:08.740 ,7,0,0.,24.0,0.,24.0,0.,24.0,0.,24.0
1979-07-03 06:18:32.740 ,6,1,0.,24.0,0.,24.0,0.,24.0,0.,24.0
1979-07-03 06:18:56.740 ,6,0,0.,24.0,0.,24.0,0.,24.0,0.,24.0
1979-07-03 06:19:20.740 ,5,1,0.,24.0,0.,24.0,0.,24.0,0.,24.0
1979-07-03 06:19:44.740 ,5,0,0.,24.0,0.,24.0,0.,24.0,0.,24.0
1979-07-03 06:20:08.740 ,4,1,0.,24.0,0.,24.0,0.,24.0,0.,24.0
1979-07-03 06:20:32.740 ,4,0,0.,24.0,0.,24.0,0.,24.0,0.,24.0
1979-07-03 06:20:56.740 ,3,1,0.,24.0,0.,24.0,0.,24.0,0.,24.0
1979-07-03 06:21:20.740 ,3,0,0.,24.0,0.,24.0,0.,24.0,0.,24.0
1979-07-03 06:21:44.740 ,2,1,0.,24.0,0.,24.0,0.,24.0,0.,24.0
1979-07-03 06:22:08.740 ,2,0,0.,24.0,0.,24.0,0.,24.0,0.,24.0
1979-07-03 06:22:32.740 ,1,1,0.,24.0,0.,24.0,0.,24.0,0.,24.0
1979-07-03 06:22:56.740 ,1,0,0.,24.0,0.,24.0,0.,24.0,0.,24.0
1979-07-03 06:23:20.740 ,0,1,0.,24.0,0.,24.0,0.,24.0,0.,24.0
1979-07-03 06:23:44.740 ,0,0,0.,24.0,0.,24.0,0.,24.0,0.,24.0
1979-07-03 06:24:08.740 ,0,1,0.,24.0,0.,24.0,0.,24.0,0.,24.0
1979-07-03 06:24:32.740 ,0,0,0.,24.0,0.,24.0,0.,24.0,0.,24.0
1979-07-03 06:24:56.740 ,1,1,0.,24.0,0.,24.0,0.,24.0,0.,24.0
1979-07-03 06:25:20.740 ,1,0,0.,24.0,0.,24.0,0.,24.0,0.,24.0
1979-07-03 06:25:44.740 ,2,1,0.,24.0,0.,24.0,0.,24.0,0.,24.0
1979-07-03 06:26:08.740 ,2,0,0.,24.0,0.,24.0,0.,24.0,0.,24.0
1979-07-03 06:26:32.740 ,3,1,0.,24.0,0.,24.0,0.,24.0,0.,24.0
1979-07-03 06:26:56.740 ,3,0,0.,24.0,0.,24.0,0.,24.0,0.,24.0
1979-07-03 06:27:20.740 ,4,1,0.,24.0,0.,24.0,0.,24.0,0.,24.0
1979-07-03 06:27:44.740 ,4,0,0.,24.0,0.,24.0,0.,24.0,0.,24.0
1979-07-03 06:28:08.740 ,5,1,0.,24.0,0.,24.0,0.,24.0,0.,24.0
1979-07-03 06:28:32.740 ,5,0,0.,24.0,0.,24.0,0.,24.0,0.,24.0
1979-07-03 06:28:56.740 ,6,1,0.,24.0,0.,24.0,0.,24.0,0.,24.0
1979-07-03 06:29:20.740 ,6,0,0.,24.0,0.,24.0,0.,24.0,0.,24.0
1979-07-03 06:29:44.740 ,7,1,0.,24.0,0.,24.0,0.,24.0,0.,24.0
1979-07-03 06:30:08.740 ,7,0,0.,24.0,0.,24.0,0.,24.0,0.,24.0
1979-07-03 06:30:32.730 ,7,1,0.,24.0,0.,24.0,0.,24.0,0.,24.0
1979-07-03 06:30:56.730 ,7,0,0.,24.0,0.,24.0,0.,24.0,0.,24.0
1979-07-03 06:31:20.730 ,6,1,0.,24.0,0.,24.0,0.,24.0,0.,24.0
1979-07-03 06:31:44.730 ,6,0,0.,24.0,0.,24.0,0.,24.0,0.,24.0
1979-07-03 06:32:08.730 ,5,1,0.,24.0,0.,24.0,0.,24.0,0.,24.0
1979-07-03 06:32:32.730 ,5,0,0.,24.0,0.,24.0,0.,24.0,0.,24.0
1979-07-03 06:32:56.730 ,4,1,0.,24.0,0.,24.0,0.,24.0,0.,24.0
1979-07-03 06:33:20.730 ,4,0,0.,24.0,0.,24.0,0.,24.0,0.,24.0
1979-07-03 06:33:44.730 ,3,1,0.,24.0,0.,24.0,0.,24.0,0.,24.0
1979-07-03 06:34:08.730 ,3,0,0.,24.0,0.,24.0,0.,24.0,0.,24.0
1979-07-03 06:34:32.730 ,2,1,0.,24.0,0.,24.0,0.,24.0,0.,24.0
1979-07-03 06:34:56.730 ,2,0,0.,24.0,0.,24.0,0.,24.0,0.,24.0
1979-07-03 06:35:20.730 ,1,1,0.,24.0,0.,24.0,0.,24.0,0.,24.0
1979-07-03 06:35:44.730 ,1,0,0.,24.0,0.,24.0,0.,24.0,0.,24.0
1979-07-03 06:36:08.730 ,0,1,0.,24.0,0.,24.0,0.,24.0,0.,24.0
1979-07-03 06:36:32.730 ,0,0,0.,24.0,0.,24.0,0.,24.0,0.,24.0
1979-07-03 06:36:56.730 ,0,1,0.,24.0,0.,24.0,0.,24.0,0.,24.0
1979-07-03 06:37:20.730 ,0,0,0.,24.0,0.,24.0,0.,24.0,0.,24.0
1979-07-03 06:37:44.730 ,1,1,0.,24.0,0.,24.0,0.,24.0,0.,24.0
1979-07-03 06:38:08.730 ,1,0,0.,24.0,0.,24.0,0.,24.0,0.,24.0
1979-07-03 06:38:32.730 ,2,1,0.,24.0,0.,24.0,0.,24.0,0.,24.0
1979-07-03 06:38:56.730 ,2,0,0.,24.0,0.,24.0,0.,24.0,0.,24.0
1979-07-03 06:39:20.730 ,3,1,0.,24.0,0.,24.0,0.,24.0,0.,24.0
1979-07-03 06:39:44.730 ,3,0,0.,24.0,0.,24.0,0.,24.0,0.,24.0
1979-07-03 06:40:08.730 ,4,1,0.,24.0,0.,24.0,0.,24.0,0.,24.0
1979-07-03 06:40:32.730 ,4,0,0.,24.0,0.,24.0,0.,24.0,0.,24.0
1979-07-03 06:40:56.730 ,5,1,0.,24.0,0.,24.0,0.,24.0,0.,24.0
1979-07-03 06:41:20.730 ,5,0,0.,24.0,0.,24.0,0.,24.0,0.,24.0
1979-07-03 06:41:44.730 ,6,1,0.,24.0,0.,24.0,0.,24.0,0.,24.0
1979-07-03 06:42:08.730 ,6,0,0.,24.0,0.,24.0,0.,24.0,0.,24.0
1979-07-03 06:42:08.730 ,6,0,0.,24.0,0.,24.0,0.,24.0,0.,24.0
1979-07-03 06:42:32.730 ,7,0,0.,24.0,0.,24.0,0.,24.0,0.,24.0
1979-07-03 06:42:56.730 ,7,0,0.,24.0,0.,24.0,0.,24.0,0.,24.0
1979-07-03 06:43:20.730 ,5,1,0.,24.0,0.,24.0,0.,24.0,0.,24.0
1979-07-03 06:43:44.730 ,1,1,1.,24.0,0.,24.0,0.,24.0,0.,24.0
1979-07-03 06:44:08.730 ,2,1,0.,24.0,0.,24.0,0.,24.0,0.,24.0
1979-07-03 06:44:32.730 ,6,1,0.,24.0,0.,24.0,0.,24.0,0.,24.0
1979-07-03 06:44:56.730 ,5,1,0.,24.0,0.,24.0,0.,24.0,0.,24.0
1979-07-03 06:45:20.730 ,1,1,0.,24.0,0.,24.0,0.,24.0,0.,24.0
1979-07-03 06:45:44.730 ,2,1,0.,24.0,0.,24.0,0.,24.0,0.,24.0
1979-07-03 06:46:08.730 ,6,1,0.,24.0,0.,24.0,0.,24.0,0.,24.0
1979-07-03 06:46:32.730 ,5,1,0.,24.0,0.,24.0,0.,24.0,0.,24.0
1979-07-03 06:46:56.730 ,1,1,0.,24.0,0.,24.0,0.,24.0,0.,24.0
1979-07-03 06:47:20.730 ,2,1,0.,24.0,0.,24.0,0.,24.0,0.,24.0
1979-07-03 06:47:44.730 ,6,1,1.,24.0,0.,24.0,0.,24.0,0.,24.0
1979-07-03 06:48:08.730 ,5,1,0.,24.0,0.,24.0,0.,24.0,0.,24.0
1979-07-03 06:48:32.730 ,1,1,0.,24.0,0.,24.0,0.,24.0,0.,24.0
1979-07-03 06:48:56.730 ,2,1,0.,24.0,0.,24.0,0.,24.0,0.,24.0
1979-07-03 06:49:20.730 ,6,1,0.,24.0,0.,24.0,0.,24.0,0.,24.0
1979-07-03 06:49:44.730 ,5,1,0.,24.0,0.,24.0,0.,24.0,0.,24.0
1979-07-03 06:50:08.730 ,1,1,0.,24.0,0.,24.0,0.,24.0,0.,24.0
1979-07-03 06:50:32.730 ,2,1,0.,24.0,0.,24.0,0.,24.0,0.,24.0
1979-07-03 06:50:56.730 ,6,1,0.,24.0,0.,24.0,0.,24.0,0.,24.0
1979-07-03 06:51:20.730 ,5,1,0.,24.0,0.,24.0,0.,24.0,0.,24.0
1979-07-03 06:51:44.730 ,1,1,0.,24.0,0.,24.0,0.,24.0,0.,24.0
1979-07-03 06:52:08.730 ,2,1,0.,24.0,0.,24.0,0.,24.0,0.,24.0
1979-07-03 06:52:32.730 ,6,1,0.,24.0,0.,24.0,0.,24.0,0.,24.0
1979-07-03 06:52:56.730 ,5,1,0.,24.0,0.,24.0,0.,24.0,0.,24.0
1979-07-03 06:53:20.730 ,1,1,0.,24.0,0.,24.0,0.,24.0,0.,24.0
1979-07-03 06:53:44.730 ,0,0,0.,24.0,0.,24.0,0.,24.0,0.,24.0
1979-07-03 06:54:08.730 ,0,0,0.,24.0,0.,24.0,0.,24.0,0.,24.0
1979-07-03 06:54:32.730 ,5,1,0.,24.0,0.,24.0,0.,24.0,0.,24.0
1979-07-03 06:54:56.730 ,5,0,0.,24.0,0.,24.0,0.,24.0,0.,24.0
1979-07-03 06:55:20.730 ,4,1,0.,24.0,0.,24.0,0.,24.0,0.,24.0
1979-07-03 06:55:44.730 ,4,0,0.,24.0,0.,24.0,0.,24.0,0.,24.0
1979-07-03 06:56:08.730 ,3,1,0.,24.0,0.,24.0,0.,24.0,0.,24.0
1979-07-03 06:56:32.730 ,3,0,0.,24.0,0.,24.0,0.,24.0,0.,24.0
1979-07-03 06:56:56.730 ,2,1,0.,24.0,0.,24.0,0.,24.0,0.,24.0
1979-07-03 06:57:20.730 ,2,0,0.,24.0,0.,24.0,0.,24.0,0.,24.0
1979-07-03 06:57:44.730 ,1,1,0.,24.0,0.,24.0,0.,24.0,0.,24.0
1979-07-03 06:58:08.730 ,1,0,0.,24.0,0.,24.0,0.,24.0,0.,24.0
1979-07-03 06:58:32.730 ,0,1,0.,24.0,0.,24.0,0.,24.0,0.,24.0
1979-07-03 06:58:56.730 ,0,0,0.,24.0,0.,24.0,0.,24.0,0.,24.0
1979-07-03 06:59:20.730 ,0,1,0.,24.0,0.,24.0,0.,24.0,0.,24.0
1979-07-03 06:59:44.730 ,0,0,0.,24.0,0.,24.0,0.,24.0,0.,24.0
1979-07-03 07:00:08.730 ,1,1,0.,24.0,0.,24.0,0.,24.0,0.,24.0
1979-07-03 07:00:32.730 ,1,0,0.,24.0,0.,24.0,0.,24.0,0.,24.0
1979-07-03 07:00:56.730 ,2,1,0.,24.0,0.,24.0,0.,24.0,0.,24.0
1979-07-03 07:01:20.730 ,2,0,0.,24.0,0.,24.0,0.,24.0,0.,24.0
1979-07-03 07:01:44.730 ,3,1,0.,24.0,0.,24.0,0.,24.0,0.,24.0
1979-07-03 07:02:08.730 ,3,0,0.,24.0,0.,24.0,0.,24.0,0.,24.0
1979-07-03 07:02:32.730 ,4,1,0.,24.0,0.,24.0,0.,24.0,0.,24.0
1979-07-03 07:02:56.730 ,4,0,0.,24.0,0.,24.0,0.,24.0,0.,24.0
1979-07-03 07:03:20.730 ,5,1,0.,24.0,0.,24.0,0.,24.0,0.,24.0
1979-07-03 07:03:44.730 ,5,0,0.,24.0,0.,24.0,0.,24.0,0.,24.0
1979-07-03 07:04:08.730 ,6,1,0.,24.0,0.,24.0,0.,24.0,0.,24.0
1979-07-03 07:04:32.730 ,6,0,0.,24.0,0.,24.0,0.,24.0,0.,24.0
1979-07-03 07:04:56.730 ,7,1,0.,24.0,0.,24.0,0.,24.0,0.,24.0
1979-07-03 07:05:20.730 ,7,0,0.,24.0,0.,24.0,0.,24.0,0.,24.0
1979-07-03 07:05:44.730 ,7,1,0.,24.0,0.,24.0,0.,24.0,0.,24.0
1979-07-03 07:06:08.730 ,7,0,0.,24.0,0.,24.0,0.,24.0,0.,24.0
1979-07-03 07:06:32.730 ,6,1,0.,24.0,0.,24.0,0.,24.0,0.,24.0
1979-07-03 07:06:56.730 ,6,0,0.,24.0,0.,24.0,0.,24.0,0.,24.0
1979-07-03 07:07:20.730 ,5,1,0.,24.0,0.,24.0,0.,24.0,0.,24.0
1979-07-03 07:07:44.730 ,5,0,0.,24.0,0.,24.0,0.,24.0,0.,24.0
1979-07-03 07:08:08.730 ,4,1,0.,24.0,0.,24.0,0.,24.0,0.,24.0
1979-07-03 07:08:32.730 ,4,0,0.,24.0,0.,24.0,0.,24.0,0.,24.0
1979-07-03 07:08:56.730 ,3,1,0.,24.0,0.,24.0,0.,24.0,0.,24.0
1979-07-03 07:09:20.730 ,3,0,0.,24.0,0.,24.0,0.,24.0,0.,24.0
1979-07-03 07:09:44.730 ,2,1,0.,24.0,0.,24.0,0.,24.0,0.,24.0
1979-07-03 07:10:08.730 ,2,0,0.,24.0,0.,24.0,0.,24.0,0.,24.0
1979-07-03 07:10:32.730 ,1,1,0.,24.0,0.,24.0,0.,24.0,0.,24.0
1979-07-03 07:10:56.730 ,1,0,0.,24.0,0.,24.0,0.,24.0,0.,24.0
1979-07-03 07:11:20.730 ,0,1,0.,24.0,0.,24.0,0.,24.0,0.,24.0
1979-07-03 07:11:44.730 ,0,0,0.,24.0,0.,24.0,0.,24.0,0.,24.0
1979-07-03 07:12:08.730 ,0,1,0.,24.0,0.,24.0,0.,24.0,0.,24.0
1979-07-03 07:12:32.730 ,0,0,0.,24.0,0.,24.0,0.,24.0,0.,24.0
1979-07-03 07:12:56.730 ,1,1,0.,24.0,0.,24.0,0.,24.0,0.,24.0
1979-07-03 07:13:20.730 ,1,0,0.,24.0,0.,24.0,0.,24.0,0.,24.0
1979-07-03 07:13:44.730 ,2,1,0.,24.0,0.,24.0,0.,24.0,0.,24.0
1979-07-03 07:14:08.730 ,2,0,0.,24.0,0.,24.0,0.,24.0,0.,24.0
1979-07-03 07:14:32.730 ,3,1,0.,24.0,0.,24.0,0.,24.0,0.,24.0
1979-07-03 07:14:56.730 ,3,0,0.,24.0,0.,24.0,0.,24.0,0.,24.0
1979-07-03 07:15:20.730 ,4,1,0.,24.0,0.,24.0,0.,24.0,0.,24.0
1979-07-03 07:15:44.730 ,4,0,0.,24.0,0.,24.0,0.,24.0,0.,24.0
1979-07-03 07:16:08.730 ,5,1,0.,24.0,0.,24.0,0.,24.0,0.,24.0
1979-07-03 07:16:32.730 ,5,0,0.,24.0,0.,24.0,0.,24.0,0.,24.0
1979-07-03 07:16:56.730 ,6,1,0.,24.0,0.,24.0,0.,24.0,0.,24.0
1979-07-03 07:17:20.730 ,6,0,0.,24.0,0.,24.0,0.,24.0,0.,24.0
1979-07-03 07:17:44.730 ,7,1,0.,24.0,0.,24.0,0.,24.0,0.,24.0
1979-07-03 07:18:08.730 ,7,0,0.,24.0,0.,24.0,0.,24.0,0.,24.0
1979-07-03 07:18:32.730 ,7,1,0.,24.0,0.,24.0,0.,24.0,0.,24.0
1979-07-03 07:18:56.730 ,7,0,0.,24.0,0.,24.0,0.,24.0,0.,24.0
1979-07-03 07:19:20.730 ,6,1,0.,24.0,0.,24.0,0.,24.0,0.,24.0
1979-07-03 07:19:44.730 ,6,0,0.,24.0,0.,24.0,0.,24.0,0.,24.0
1979-07-03 07:20:08.730 ,5,1,0.,24.0,0.,24.0,0.,24.0,0.,24.0
1979-07-03 07:20:32.730 ,5,0,0.,24.0,0.,24.0,0.,24.0,0.,24.0
1979-07-03 07:20:56.730 ,4,1,0.,24.0,0.,24.0,0.,24.0,0.,24.0
1979-07-03 07:21:20.730 ,4,0,0.,24.0,0.,24.0,0.,24.0,0.,24.0
1979-07-03 07:21:44.730 ,3,1,0.,24.0,0.,24.0,0.,24.0,0.,24.0
1979-07-03 07:22:08.730 ,3,0,0.,24.0,0.,24.0,0.,24.0,0.,24.0
1979-07-03 07:22:32.730 ,2,1,0.,24.0,0.,24.0,0.,24.0,0.,24.0
1979-07-03 07:22:56.730 ,2,0,0.,24.0,0.,24.0,0.,24.0,0.,24.0
1979-07-03 07:23:20.730 ,1,1,0.,24.0,0.,24.0,0.,24.0,0.,24.0
1979-07-03 07:23:44.730 ,1,0,0.,24.0,0.,24.0,0.,24.0,0.,24.0
1979-07-03 07:24:08.730 ,0,1,0.,24.0,0.,24.0,0.,24.0,0.,24.0
1979-07-03 07:24:32.730 ,0,0,0.,24.0,0.,24.0,0.,24.0,0.,24.0
1979-07-03 07:24:56.730 ,0,1,0.,24.0,0.,24.0,0.,24.0,0.,24.0
1979-07-03 07:25:20.730 ,0,0,0.,24.0,0.,24.0,0.,24.0,0.,24.0
1979-07-03 07:25:44.730 ,1,1,0.,24.0,0.,24.0,0.,24.0,0.,24.0
1979-07-03 07:26:08.730 ,1,0,0.,24.0,0.,24.0,0.,24.0,0.,24.0
1979-07-03 07:26:32.730 ,2,1,0.,24.0,0.,24.0,0.,24.0,0.,24.0
1979-07-03 07:26:56.730 ,2,0,0.,24.0,0.,24.0,0.,24.0,0.,24.0
1979-07-03 07:27:20.730 ,3,1,0.,24.0,0.,24.0,0.,24.0,0.,24.0
1979-07-03 07:27:44.730 ,3,0,0.,24.0,0.,24.0,0.,24.0,0.,24.0
1979-07-03 07:28:08.730 ,4,1,0.,24.0,0.,24.0,0.,24.0,0.,24.0
1979-07-03 07:28:32.730 ,4,0,0.,24.0,0.,24.0,0.,24.0,0.,24.0
1979-07-03 07:28:56.730 ,5,1,0.,24.0,0.,24.0,0.,24.0,0.,24.0
1979-07-03 07:29:20.730 ,5,0,0.,24.0,0.,24.0,0.,24.0,0.,24.0
1979-07-03 07:29:44.730 ,6,1,0.,24.0,0.,24.0,0.,24.0,0.,24.0
1979-07-03 07:30:08.730 ,6,0,0.,24.0,0.,24.0,0.,24.0,0.,24.0
1979-07-03 07:30:32.730 ,7,0,0.,24.0,0.,24.0,0.,24.0,0.,24.0
1979-07-03 07:30:56.730 ,0,0,,0,,0,,0,,0
1979-07-03 07:31:08.130 ,7,0,,0,,0,,0,,0
1979-07-03 07:31:20.730 ,5,1,0.,24.0,0.,24.0,0.,24.0,0.,24.0
1979-07-03 07:31:44.730 ,1,1,0.,24.0,0.,24.0,0.,24.0,0.,24.0
1979-07-03 07:32:08.730 ,2,1,0.,24.0,0.,24.0,0.,24.0,0.,24.0
1979-07-03 07:32:32.730 ,6,1,0.,24.0,0.,24.0,0.,24.0,0.,24.0
1979-07-03 07:32:56.730 ,5,1,0.,24.0,0.,24.0,0.,24.0,0.,24.0
1979-07-03 07:33:20.730 ,1,1,0.,24.0,0.,24.0,0.,24.0,0.,24.0
1979-07-03 07:33:44.730 ,2,1,0.,24.0,0.,24.0,0.,24.0,0.,24.0
1979-07-03 07:34:08.730 ,6,1,0.,24.0,0.,24.0,0.,24.0,0.,24.0
1979-07-03 07:34:32.730 ,5,1,0.,24.0,0.,24.0,0.,24.0,0.,24.0
1979-07-03 07:34:56.730 ,1,1,0.,24.0,0.,24.0,0.,24.0,0.,24.0
1979-07-03 07:35:20.730 ,2,1,0.,24.0,0.,24.0,0.,24.0,0.,24.0
1979-07-03 07:35:44.730 ,6,1,1.,24.0,0.,24.0,0.,24.0,0.,24.0
1979-07-03 07:36:08.730 ,5,1,0.,24.0,0.,24.0,0.,24.0,0.,24.0
1979-07-03 07:36:32.730 ,1,1,0.,24.0,0.,24.0,0.,24.0,0.,24.0
1979-07-03 07:36:56.730 ,2,1,0.,24.0,0.,24.0,0.,24.0,0.,24.0
1979-07-03 07:37:20.730 ,6,1,0.,24.0,0.,24.0,0.,24.0,0.,24.0
1979-07-03 07:37:44.730 ,5,1,0.,24.0,0.,24.0,0.,24.0,0.,24.0
1979-07-03 07:38:08.730 ,1,1,0.,24.0,0.,24.0,0.,24.0,0.,24.0
1979-07-03 07:38:32.730 ,2,1,0.,24.0,0.,24.0,0.,24.0,0.,24.0
1979-07-03 07:38:56.730 ,6,1,0.,24.0,0.,24.0,0.,24.0,0.,24.0
1979-07-03 07:39:20.730 ,5,1,0.,24.0,0.,24.0,0.,24.0,0.,24.0
1979-07-03 07:39:44.730 ,1,1,0.,24.0,0.,24.0,0.,24.0,0.,24.0
1979-07-03 07:40:08.730 ,2,1,0.,24.0,0.,24.0,0.,24.0,0.,24.0
1979-07-03 07:40:32.730 ,6,1,0.,24.0,0.,24.0,0.,24.0,0.,24.0
1979-07-03 07:40:56.730 ,5,1,0.,24.0,0.,24.0,0.,24.0,0.,24.0
1979-07-03 07:41:20.730 ,1,1,0.,24.0,0.,24.0,0.,24.0,0.,24.0
1979-07-03 07:41:44.730 ,0,0,0.,24.0,0.,24.0,0.,24.0,0.,24.0
1979-07-03 07:42:08.730 ,0,0,0.,24.0,0.,24.0,0.,24.0,0.,24.0
1979-07-03 07:42:32.730 ,5,1,0.,24.0,0.,24.0,0.,24.0,0.,24.0
1979-07-03 07:42:56.730 ,5,0,0.,24.0,0.,24.0,0.,24.0,0.,24.0
1979-07-03 07:43:20.730 ,4,1,0.,24.0,0.,24.0,0.,24.0,0.,24.0
1979-07-03 07:43:44.730 ,4,0,0.,24.0,0.,24.0,0.,24.0,0.,24.0
1979-07-03 07:44:08.730 ,3,1,0.,24.0,0.,24.0,0.,24.0,0.,24.0
1979-07-03 07:44:32.730 ,3,0,0.,24.0,0.,24.0,0.,24.0,0.,24.0
1979-07-03 07:44:56.730 ,2,1,0.,24.0,0.,24.0,0.,24.0,0.,24.0
1979-07-03 07:45:20.730 ,2,0,0.,24.0,0.,24.0,0.,24.0,0.,24.0
1979-07-03 07:45:44.730 ,1,1,0.,24.0,0.,24.0,0.,24.0,0.,24.0
1979-07-03 07:46:08.730 ,1,0,0.,24.0,0.,24.0,0.,24.0,0.,24.0
1979-07-03 07:46:32.730 ,0,1,0.,24.0,0.,24.0,0.,24.0,0.,24.0
1979-07-03 07:46:56.730 ,0,0,0.,24.0,0.,24.0,0.,24.0,0.,24.0
1979-07-03 07:47:20.730 ,0,1,0.,24.0,0.,24.0,0.,24.0,0.,24.0
1979-07-03 07:47:44.730 ,0,0,0.,24.0,0.,24.0,0.,24.0,0.,24.0
1979-07-03 07:48:08.730 ,1,1,0.,24.0,0.,24.0,0.,24.0,0.,24.0
1979-07-03 07:48:32.730 ,1,0,0.,24.0,0.,24.0,0.,24.0,0.,24.0
1979-07-03 07:48:56.730 ,2,1,0.,24.0,0.,24.0,0.,24.0,0.,24.0
1979-07-03 07:49:20.730 ,2,0,0.,24.0,0.,24.0,0.,24.0,0.,24.0
1979-07-03 07:49:44.730 ,3,1,0.,24.0,0.,24.0,0.,24.0,0.,24.0
1979-07-03 07:50:08.730 ,3,0,0.,24.0,0.,24.0,0.,24.0,0.,24.0
1979-07-03 07:50:32.730 ,4,1,0.,24.0,0.,24.0,0.,24.0,0.,24.0
1979-07-03 07:50:56.730 ,4,0,0.,24.0,0.,24.0,0.,24.0,0.,24.0
1979-07-03 07:51:20.730 ,5,1,0.,24.0,0.,24.0,0.,24.0,0.,24.0
1979-07-03 07:51:44.730 ,5,0,0.,24.0,0.,24.0,0.,24.0,0.,24.0
1979-07-03 07:52:08.730 ,6,1,0.,24.0,0.,24.0,0.,24.0,0.,24.0
1979-07-03 07:52:32.730 ,6,0,0.,24.0,0.,24.0,0.,24.0,0.,24.0
1979-07-03 07:52:56.730 ,7,1,0.,24.0,0.,24.0,0.,24.0,0.,24.0
1979-07-03 07:53:20.730 ,7,0,0.,24.0,0.,24.0,0.,24.0,0.,24.0
1979-07-03 07:53:44.730 ,7,1,1.,24.0,0.,24.0,0.,24.0,0.,24.0
1979-07-03 07:54:08.730 ,7,0,0.,24.0,0.,24.0,0.,24.0,0.,24.0
1979-07-03 07:54:32.730 ,6,1,0.,24.0,0.,24.0,0.,24.0,0.,24.0
1979-07-03 07:54:56.730 ,6,0,0.,24.0,0.,24.0,0.,24.0,0.,24.0
1979-07-03 07:55:20.730 ,5,1,0.,24.0,0.,24.0,0.,24.0,0.,24.0
1979-07-03 07:55:44.730 ,5,0,0.,24.0,0.,24.0,0.,24.0,0.,24.0
1979-07-03 07:56:08.730 ,4,1,0.,24.0,0.,24.0,0.,24.0,0.,24.0
1979-07-03 07:56:32.730 ,4,0,0.,24.0,0.,24.0,0.,24.0,0.,24.0
1979-07-03 07:56:56.730 ,3,1,0.,24.0,0.,24.0,0.,24.0,0.,24.0
1979-07-03 07:57:20.730 ,3,0,0.,24.0,0.,24.0,0.,24.0,0.,24.0
1979-07-03 07:57:44.730 ,2,1,0.,24.0,0.,24.0,0.,24.0,0.,24.0
1979-07-03 07:58:08.730 ,2,0,0.,24.0,0.,24.0,0.,24.0,0.,24.0
1979-07-03 07:58:32.730 ,1,1,0.,24.0,0.,24.0,0.,24.0,0.,24.0
1979-07-03 07:58:56.730 ,1,0,0.,24.0,0.,24.0,0.,24.0,0.,24.0
1979-07-03 07:59:20.730 ,0,1,0.,24.0,0.,24.0,0.,24.0,0.,24.0
1979-07-03 07:59:44.730 ,0,0,0.,24.0,0.,24.0,0.,24.0,0.,24.0
1979-07-03 08:00:08.730 ,0,1,0.,24.0,0.,24.0,0.,24.0,0.,24.0
1979-07-03 08:00:32.730 ,0,0,0.,24.0,0.,24.0,0.,24.0,0.,24.0
1979-07-03 08:00:56.730 ,1,1,0.,24.0,0.,24.0,0.,24.0,0.,24.0
1979-07-03 08:01:20.730 ,1,0,0.,24.0,0.,24.0,0.,24.0,0.,24.0
1979-07-03 08:01:44.730 ,2,1,0.,24.0,0.,24.0,0.,24.0,0.,24.0
1979-07-03 08:02:08.730 ,2,0,0.,24.0,0.,24.0,0.,24.0,0.,24.0
1979-07-03 08:02:32.730 ,3,1,0.,24.0,0.,24.0,0.,24.0,0.,24.0
1979-07-03 08:02:56.730 ,3,0,0.,24.0,0.,24.0,0.,24.0,0.,24.0
1979-07-03 08:03:20.730 ,4,1,0.,24.0,0.,24.0,0.,24.0,0.,24.0
1979-07-03 08:03:44.730 ,4,0,1.,24.0,0.,24.0,0.,24.0,0.,24.0
1979-07-03 08:04:08.730 ,5,1,0.,24.0,0.,24.0,0.,24.0,0.,24.0
1979-07-03 08:04:32.730 ,5,0,0.,24.0,0.,24.0,0.,24.0,0.,24.0
1979-07-03 08:04:56.730 ,6,1,0.,24.0,0.,24.0,0.,24.0,0.,24.0
1979-07-03 08:05:20.730 ,6,0,0.,24.0,0.,24.0,0.,24.0,0.,24.0
1979-07-03 08:05:44.730 ,7,1,0.,24.0,0.,24.0,0.,24.0,0.,24.0
1979-07-03 08:06:08.730 ,7,0,0.,24.0,0.,24.0,0.,24.0,0.,24.0
1979-07-03 08:06:32.730 ,7,1,0.,24.0,0.,24.0,0.,24.0,0.,24.0
1979-07-03 08:06:56.730 ,7,0,0.,24.0,0.,24.0,0.,24.0,0.,24.0
1979-07-03 08:07:20.730 ,6,1,0.,24.0,0.,24.0,0.,24.0,0.,24.0
1979-07-03 08:07:44.730 ,6,0,0.,24.0,0.,24.0,0.,24.0,0.,24.0
1979-07-03 08:08:08.730 ,5,1,0.,24.0,0.,24.0,0.,24.0,0.,24.0
1979-07-03 08:08:32.730 ,5,0,0.,24.0,0.,24.0,0.,24.0,0.,24.0
1979-07-03 08:08:56.730 ,4,1,0.,24.0,0.,24.0,0.,24.0,0.,24.0
1979-07-03 08:09:20.730 ,4,0,0.,24.0,0.,24.0,0.,24.0,0.,24.0
1979-07-03 08:09:44.730 ,3,1,0.,24.0,0.,24.0,0.,24.0,0.,24.0
1979-07-03 08:10:08.730 ,3,0,0.,24.0,0.,24.0,0.,24.0,0.,24.0
1979-07-03 08:10:32.730 ,2,1,0.,24.0,0.,24.0,0.,24.0,0.,24.0
1979-07-03 08:10:56.730 ,2,0,0.,24.0,0.,24.0,0.,24.0,0.,24.0
1979-07-03 08:11:20.730 ,1,1,0.,24.0,0.,24.0,0.,24.0,0.,24.0
1979-07-03 08:11:44.730 ,1,0,0.,24.0,0.,24.0,0.,24.0,0.,24.0
1979-07-03 08:12:08.730 ,0,1,0.,24.0,0.,24.0,0.,24.0,0.,24.0
1979-07-03 08:12:32.730 ,0,0,0.,24.0,0.,24.0,0.,24.0,0.,24.0
1979-07-03 08:12:56.730 ,0,1,0.,24.0,0.,24.0,0.,24.0,0.,24.0
1979-07-03 08:13:20.730 ,0,0,0.,24.0,0.,24.0,0.,24.0,0.,24.0
1979-07-03 08:13:44.730 ,1,1,0.,24.0,0.,24.0,0.,24.0,0.,24.0
1979-07-03 08:14:08.730 ,1,0,0.,24.0,0.,24.0,0.,24.0,0.,24.0
1979-07-03 08:14:32.730 ,2,1,0.,24.0,0.,24.0,0.,24.0,0.,24.0
1979-07-03 08:14:56.730 ,2,0,0.,24.0,0.,24.0,0.,24.0,0.,24.0
1979-07-03 08:15:20.730 ,3,1,0.,24.0,0.,24.0,0.,24.0,0.,24.0
1979-07-03 08:15:44.730 ,3,0,0.,24.0,0.,24.0,0.,24.0,0.,24.0
1979-07-03 08:16:08.730 ,4,1,0.,24.0,0.,24.0,0.,24.0,0.,24.0
1979-07-03 08:16:32.730 ,4,0,0.,24.0,0.,24.0,0.,24.0,0.,24.0
1979-07-03 08:16:56.730 ,5,1,0.,24.0,0.,24.0,0.,24.0,0.,24.0
1979-07-03 08:17:20.730 ,5,0,0.,24.0,0.,24.0,0.,24.0,0.,24.0
1979-07-03 08:17:44.730 ,6,1,0.,24.0,0.,24.0,0.,24.0,0.,24.0
1979-07-03 08:18:08.730 ,6,0,0.,24.0,0.,24.0,0.,24.0,0.,24.0
1979-07-03 08:18:32.730 ,7,0,0.,24.0,0.,24.0,0.,24.0,0.,24.0
1979-07-03 08:18:56.730 ,7,0,0.,24.0,0.,24.0,0.,24.0,0.,24.0
1979-07-03 08:19:20.730 ,5,1,0.,24.0,0.,24.0,0.,24.0,0.,24.0
1979-07-03 08:19:44.730 ,1,1,0.,24.0,0.,24.0,0.,24.0,0.,24.0
1979-07-03 08:20:08.730 ,2,1,0.,24.0,0.,24.0,0.,24.0,0.,24.0
1979-07-03 08:20:32.730 ,6,1,0.,24.0,0.,24.0,0.,24.0,0.,24.0
1979-07-03 08:20:56.730 ,5,1,0.,24.0,0.,24.0,0.,24.0,0.,24.0
1979-07-03 08:21:20.730 ,1,1,0.,24.0,0.,24.0,0.,24.0,0.,24.0
1979-07-03 08:21:44.730 ,2,1,0.,24.0,0.,24.0,0.,24.0,0.,24.0
1979-07-03 08:22:08.730 ,6,1,0.,24.0,0.,24.0,0.,24.0,0.,24.0
1979-07-03 08:22:32.730 ,5,1,0.,24.0,0.,24.0,0.,24.0,0.,24.0
1979-07-03 08:22:56.730 ,1,1,0.,24.0,0.,24.0,0.,24.0,0.,24.0
1979-07-03 08:23:20.730 ,2,1,0.,24.0,0.,24.0,0.,24.0,0.,24.0
1979-07-03 08:23:44.730 ,6,1,0.,24.0,0.,24.0,0.,24.0,0.,24.0
1979-07-03 08:24:08.730 ,5,1,0.,24.0,0.,24.0,0.,24.0,0.,24.0
1979-07-03 08:24:32.730 ,1,1,0.,24.0,0.,24.0,0.,24.0,0.,24.0
1979-07-03 08:24:56.730 ,2,1,0.,24.0,0.,24.0,0.,24.0,0.,24.0
1979-07-03 08:25:20.730 ,6,1,0.,24.0,0.,24.0,0.,24.0,0.,24.0
1979-07-03 08:25:44.730 ,5,1,0.,24.0,0.,24.0,0.,24.0,0.,24.0
1979-07-03 08:26:08.730 ,1,1,0.,24.0,0.,24.0,0.,24.0,0.,24.0
1979-07-03 08:26:32.730 ,2,1,0.,24.0,0.,24.0,0.,24.0,0.,24.0
1979-07-03 08:26:56.730 ,6,1,0.,24.0,0.,24.0,0.,24.0,0.,24.0
1979-07-03 08:27:20.730 ,5,1,0.,24.0,0.,24.0,0.,24.0,0.,24.0
1979-07-03 08:27:44.730 ,1,1,0.,24.0,0.,24.0,0.,24.0,0.,24.0
1979-07-03 08:28:08.730 ,2,1,0.,24.0,0.,24.0,0.,24.0,0.,24.0
1979-07-03 08:28:32.730 ,6,1,0.,24.0,0.,24.0,0.,24.0,0.,24.0
1979-07-03 08:28:56.730 ,5,1,0.,24.0,0.,24.0,0.,24.0,0.,24.0
1979-07-03 08:29:20.730 ,1,1,0.,24.0,0.,24.0,0.,24.0,0.,24.0
1979-07-03 08:29:44.730 ,0,0,0.,24.0,0.,24.0,0.,24.0,0.,24.0
1979-07-03 08:30:08.730 ,0,0,0.,24.0,0.,24.0,0.,24.0,0.,24.0
1979-07-03 08:30:32.730 ,5,1,0.,24.0,0.,24.0,0.,24.0,0.,24.0
1979-07-03 08:30:56.730 ,5,0,0.,24.0,0.,24.0,0.,24.0,0.,24.0
1979-07-03 08:31:20.730 ,4,1,0.,24.0,0.,24.0,0.,24.0,0.,24.0
1979-07-03 08:31:44.730 ,4,0,0.,24.0,0.,24.0,0.,24.0,0.,24.0
1979-07-03 08:32:08.730 ,3,1,0.,24.0,0.,24.0,0.,24.0,0.,24.0
1979-07-03 08:32:32.730 ,3,0,0.,24.0,0.,24.0,0.,24.0,0.,24.0
1979-07-03 08:32:56.730 ,2,1,0.,24.0,0.,24.0,0.,24.0,0.,24.0
1979-07-03 08:33:20.730 ,2,0,0.,24.0,0.,24.0,0.,24.0,0.,24.0
1979-07-03 08:33:44.730 ,1,1,0.,24.0,0.,24.0,0.,24.0,0.,24.0